Weather History for Ballenas Island, BC

Change the Weather History Date:

Wednesday, October 17, 2012

  Actual Average Record
Temperature  
Mean Temperature 47 °F -  
Max Temperature 50 °F - - ()
Min Temperature 44 °F - - ()
Degree Days  
Heating Degree Days 18    
Moisture  
Dew Point 44 °F    
Average Humidity 83    
Maximum Humidity 89    
Minimum Humidity 71    
Precipitation  
Precipitation 0.00 in - - ()
Sea Level Pressure  
Sea Level Pressure 30.23 in    
Wind  
Wind Speed 8 mph ()    
Max Wind Speed 20 mph    
Max Gust Speed -    
T = Trace of Precipitation, MM = Missing Value Source: Averaged Metar Reports

Daily Weather History Graph

Daily Weather History Graph

Search for Another Location

Airport:

Trip Planner

Search our weather history database for the weather conditions in past years. The results will help you decide how hot, cold, wet, or windy it might be!

Date:

Astronomy

Oct. 17, 2012 Rise Set
Actual Time 7:41 AM PDT 6:21 PM PDT
Civil Twilight 7:09 AM PDT 6:53 PM PDT
Nautical Twilight 6:32 AM PDT 7:30 PM PDT
Astronomical Twilight 5:55 AM PDT 8:07 PM PDT
Moon 10:40 AM PDT (10/17) 7:44 PM PDT (10/17)
Length of Visible Light 11h 43m
Length of Day
10h 39m
Waxing Crescent, 8% of the Moon is Illuminated
Oct 17
Waxing Crescent
Oct 21
First Quarter
Oct 29
Full
Nov 6
Last Quarter
Nov 13
New

Hourly Weather History & Observations

Time (PDT) Temp. Windchill Dew Point Humidity Pressure Visibility Wind Dir Wind Speed Gust Speed Precip Events Conditions
12:00 AM 48.2 °F - 42.6 °F 81% 30.22 in - SW 6.9 mph - N/A   Unknown
1:00 AM 49.5 °F - 43.0 °F 78% 30.23 in - West 6.9 mph - N/A   Unknown
2:00 AM 46.8 °F - 42.6 °F 85% 30.24 in - SW 8.1 mph - N/A   Unknown
3:00 AM 45.9 °F 42.9 °F 41.7 °F 85% 30.24 in - SW 5.8 mph - N/A   Unknown
4:00 AM 45.3 °F 43.0 °F 42.1 °F 88% 30.24 in - SW 4.6 mph - N/A   Unknown
5:00 AM 45 °F - 41 °F 82% 30.24 in - SW 5.8 mph - -  
5:00 AM 44.8 °F 41.6 °F 41.2 °F 87% 30.24 in - SW 5.8 mph - N/A   Unknown
6:00 AM 45.7 °F 41.5 °F 41.2 °F 84% 30.25 in - SW 8.1 mph - N/A   Unknown
7:00 AM 45.7 °F 42.7 °F 41.9 °F 87% 30.25 in - WSW 5.8 mph - N/A   Unknown
8:00 AM 45.9 °F 43.6 °F 41.7 °F 85% 30.26 in - SW 4.6 mph - N/A   Unknown
9:00 AM 46.2 °F 43.3 °F 41.9 °F 85% 30.28 in - SW 5.8 mph - N/A   Unknown
10:00 AM 47.8 °F - 43.0 °F 83% 30.28 in - SSW 2.3 mph - N/A   Unknown
11:00 AM 49 °F - 42 °F 71% 30.27 in - ENE 1.2 mph - -  
11:00 AM 49.1 °F - 42.4 °F 78% 30.27 in - ENE 1.2 mph - N/A   Unknown
12:00 PM 49.3 °F - 44.1 °F 82% 30.28 in - East 3.5 mph - N/A   Unknown
1:00 PM 50.0 °F - 45.5 °F 85% 30.27 in - ESE 8.1 mph - N/A   Unknown
2:00 PM 50.2 °F - 46.0 °F 86% 30.25 in - ESE 13.8 mph - N/A   Unknown
3:00 PM 50.5 °F - 46.0 °F 85% 30.24 in - ESE 16.1 mph - N/A   Unknown
4:00 PM 50.4 °F - 46.6 °F 87% 30.23 in - ESE 16.1 mph - N/A   Unknown
5:00 PM 51 °F - 46 °F 78% 30.23 in - ESE 16.1 mph - -  
5:00 PM 50.7 °F - 46.2 °F 85% 30.23 in - ESE 16.1 mph - N/A   Unknown
6:00 PM 50.7 °F - 46.2 °F 85% 30.21 in - ESE 16.1 mph - N/A   Unknown
7:00 PM 50.5 °F - 45.7 °F 83% 30.19 in - ESE 17.3 mph - N/A   Unknown
8:00 PM 50.5 °F - 46.8 °F 87% 30.19 in - ESE 18.4 mph - N/A   Unknown
9:00 PM 50.4 °F - 47.1 °F 89% 30.19 in - ESE 17.3 mph - N/A   Unknown
10:00 PM 50.4 °F - 46.6 °F 87% 30.18 in - ESE 19.6 mph - N/A   Unknown
11:00 PM 51 °F - 46 °F 75% 30.17 in - ESE 16.1 mph - -  
11:00 PM 50.5 °F - 45.5 °F 83% 30.17 in - ESE 16.1 mph - N/A   Unknown